timestamp,surface_pressure_avg,surface_temp_avg,battery_voltage,lat,long
2018-03-13 00:00:00+00:00,246.6397,1.4,12.89,47.84626,-54.09684
2018-03-13 00:10:00+00:00,243.5514,1.4,12.81,47.84626,-54.09684
2018-03-13 00:20:00+00:00,242.1564,1.4,12.89,47.84626,-54.09684
2018-03-13 00:30:00+00:00,237.5564,1.4,12.89,47.84626,-54.09684
2018-03-13 00:40:00+00:00,233.9448,1.4,12.97,47.84626,-54.09684
2018-03-13 00:50:00+00:00,233.3381,1.4,12.97,47.84626,-54.09684
2018-03-13 01:00:00+00:00,229.0998,1.4,12.89,47.84626,-54.09684
2018-03-13 01:10:00+00:00,223.0098,1.4,12.81,47.84626,-54.09684
2018-03-13 01:20:00+00:00,220.3264,1.4,12.89,47.84626,-54.09684
2018-03-13 01:30:00+00:00,220.2814,1.39,12.89,47.84626,-54.09684
2018-03-13 01:40:00+00:00,218.5081,1.38,12.89,47.84626,-54.09684
2018-03-13 01:50:00+00:00,215.7948,1.38,12.89,47.84626,-54.09684
2018-03-13 02:00:00+00:00,215.7981,1.37,12.81,47.84626,-54.09684
2018-03-13 02:10:00+00:00,216.4531,1.36,12.81,47.84626,-54.09684
2018-03-13 02:20:00+00:00,215.0414,1.3,12.89,47.84626,-54.09684
2018-03-13 02:30:00+00:00,212.9531,1.3,12.89,47.84626,-54.09684
2018-03-13 02:40:00+00:00,214.0964,1.3,12.89,47.84626,-54.09684
2018-03-13 02:50:00+00:00,214.4948,1.3,12.89,47.84626,-54.09684
2018-03-13 03:00:00+00:00,214.0631,1.3,12.81,47.84626,-54.09684
2018-03-13 03:10:00+00:00,214.5264,1.3,12.81,47.84626,-54.09684
2018-03-13 03:20:00+00:00,217.5931,1.3,12.89,47.84626,-54.09684
2018-03-13 03:30:00+00:00,219.9181,1.3,12.89,47.84626,-54.09684
2018-03-13 03:40:00+00:00,219.9914,1.3,12.89,47.84626,-54.09684
2018-03-13 03:50:00+00:00,219.4931,1.3,12.89,47.84626,-54.09684
2018-03-13 04:00:00+00:00,221.1698,1.3,12.81,47.84626,-54.09684
2018-03-13 04:10:00+00:00,222.8797,1.3,12.73,47.84626,-54.09684
2018-03-13 04:20:00+00:00,224.0048,1.3,12.81,47.84626,-54.09684
2018-03-13 04:30:00+00:00,224.5481,1.3,12.81,47.84626,-54.09684
2018-03-13 04:40:00+00:00,227.4031,1.3,12.89,47.84626,-54.09684
2018-03-13 04:50:00+00:00,230.6081,1.3,12.89,47.84626,-54.09684
2018-03-13 05:00:00+00:00,233.3448,1.3,12.81,47.84626,-54.09684
2018-03-13 05:10:00+00:00,238.5548,1.3,12.73,47.84626,-54.09684
2018-03-13 05:20:00+00:00,245.2531,1.3,12.81,47.84626,-54.09684
2018-03-13 05:30:00+00:00,250.1364,1.3,12.81,47.84626,-54.09684
2018-03-13 05:40:00+00:00,255.8047,1.3,12.81,47.84626,-54.09684
2018-03-13 05:50:00+00:00,262.8547,1.3,12.89,47.84626,-54.09684
2018-03-13 06:00:00+00:00,269.3414,1.3,12.81,47.84626,-54.09684
2018-03-13 06:10:00+00:00,274.8931,1.3,12.73,47.84626,-54.09684
2018-03-13 06:20:00+00:00,281.7414,1.3,12.81,47.84626,-54.09684
2018-03-13 06:30:00+00:00,288.1431,1.3,12.81,47.84626,-54.09684
2018-03-13 06:40:00+00:00,290.9731,1.29,12.81,47.84626,-54.09684
2018-03-13 06:50:00+00:00,292.6564,1.27,12.81,47.84626,-54.09684
2018-03-13 07:00:00+00:00,295.778,1.27,12.81,47.84626,-54.09684
2018-03-13 07:10:00+00:00,300.9696,1.27,12.73,47.84626,-54.09684
2018-03-13 07:20:00+00:00,303.2813,1.29,12.81,47.84626,-54.09684
2018-03-13 07:30:00+00:00,302.3597,1.29,12.81,47.84626,-54.09684
2018-03-13 07:40:00+00:00,304.2164,1.3,12.81,47.84626,-54.09684
2018-03-13 07:50:00+00:00,308.5314,1.29,12.81,47.84626,-54.09684
2018-03-13 08:00:00+00:00,308.3497,1.29,12.81,47.84626,-54.09684
2018-03-13 08:10:00+00:00,306.508,1.29,12.73,47.84626,-54.09684
2018-03-13 08:20:00+00:00,310.0314,1.29,12.81,47.84626,-54.09684
2018-03-13 08:30:00+00:00,316.543,1.29,12.81,47.84626,-54.09684
2018-03-13 08:40:00+00:00,315.0313,1.29,12.81,47.84626,-54.09684
2018-03-13 08:50:00+00:00,312.588,1.25,12.81,47.84626,-54.09684
2018-03-13 09:00:00+00:00,314.9147,1.27,12.81,47.84626,-54.09684
2018-03-13 09:10:00+00:00,321.843,1.29,12.73,47.84626,-54.09684
2018-03-13 09:20:00+00:00,320.2913,1.3,12.81,47.84626,-54.09684
2018-03-13 09:30:00+00:00,319.3947,1.27,12.81,47.84626,-54.09684
2018-03-13 09:40:00+00:00,320.9963,1.28,12.81,47.84626,-54.09684
2018-03-13 09:50:00+00:00,321.8179,1.29,12.81,47.84626,-54.09684
2018-03-13 10:00:00+00:00,316.598,1.29,12.73,47.84626,-54.09684
2018-03-13 10:10:00+00:00,312.4313,1.29,12.73,47.84626,-54.09684
2018-03-13 10:20:00+00:00,311.9813,1.29,12.81,47.84626,-54.09684
2018-03-13 10:30:00+00:00,309.2547,1.29,12.81,47.84626,-54.09684
2018-03-13 10:40:00+00:00,304.818,1.29,12.81,47.84626,-54.09684
2018-03-13 10:50:00+00:00,301.7463,1.29,12.89,47.84626,-54.09684
2018-03-13 11:00:00+00:00,298.9747,1.29,12.81,47.84626,-54.09684
2018-03-13 11:10:00+00:00,295.3647,1.23,12.81,47.84626,-54.09684
2018-03-13 11:20:00+00:00,287.928,1.2,12.97,47.84626,-54.09684
2018-03-13 11:30:00+00:00,281.1514,1.2,12.97,47.84626,-54.09684
2018-03-13 11:40:00+00:00,276.6231,1.23,13.21,47.84626,-54.09684
2018-03-13 11:50:00+00:00,270.3248,1.26,13.53,47.84626,-54.09684
2018-03-13 12:00:00+00:00,261.1031,1.25,13.37,47.84626,-54.09684
2018-03-13 12:10:00+00:00,256.1514,1.25,13.29,47.84626,-54.09684
2018-03-13 12:20:00+00:00,256.0731,1.27,13.6,47.84626,-54.09684
2018-03-13 12:30:00+00:00,253.1414,1.28,13.6,47.84626,-54.09684
2018-03-13 12:40:00+00:00,247.9298,1.3,13.68,47.84626,-54.09684
2018-03-13 12:50:00+00:00,247.9548,1.3,13.44,47.84626,-54.09684
2018-03-13 13:00:00+00:00,246.4147,1.3,13.37,47.84626,-54.09684
2018-03-13 13:10:00+00:00,241.698,1.3,13.44,47.84626,-54.09684
2018-03-13 13:20:00+00:00,237.1498,1.3,13.44,47.84626,-54.09684
2018-03-13 13:30:00+00:00,237.4114,1.34,13.44,47.84626,-54.09684
2018-03-13 13:40:00+00:00,230.7765,1.38,13.37,47.84626,-54.09684
2018-03-13 13:50:00+00:00,222.8297,1.4,13.44,47.84626,-54.09684
2018-03-13 14:00:00+00:00,219.6281,1.4,13.68,47.84626,-54.09684
2018-03-13 14:10:00+00:00,223.5747,1.4,13.44,47.84626,-54.09684
2018-03-13 14:20:00+00:00,222.5448,1.4,13.6,47.84626,-54.09684
2018-03-13 14:30:00+00:00,215.9081,1.46,13.44,47.84626,-54.09684
2018-03-13 14:40:00+00:00,211.9414,1.5,13.68,47.84626,-54.09684
2018-03-13 14:50:00+00:00,213.8947,1.5,13.37,47.84626,-54.09684
2018-03-13 15:00:00+00:00,212.7214,1.66,13.37,47.84626,-54.09684
2018-03-13 15:10:00+00:00,209.6031,1.8,13.44,47.84626,-54.09684
2018-03-13 15:20:00+00:00,210.8781,1.79,14.0,47.84626,-54.09684
2018-03-13 15:30:00+00:00,213.1865,1.7,13.84,47.84626,-54.09684
2018-03-13 15:40:00+00:00,208.3431,1.69,13.44,47.84626,-54.09684
2018-03-13 15:50:00+00:00,207.7848,1.7,13.44,47.84626,-54.09684
2018-03-13 16:00:00+00:00,215.1531,1.7,13.44,47.84626,-54.09684
2018-03-13 16:10:00+00:00,219.1431,1.7,13.6,47.84626,-54.09684
2018-03-13 16:20:00+00:00,217.9681,1.9,13.44,47.84626,-54.09684
2018-03-13 16:30:00+00:00,218.1147,1.9,13.44,47.84626,-54.09684
2018-03-13 16:40:00+00:00,220.9331,1.89,13.37,47.84626,-54.09684
2018-03-13 16:50:00+00:00,223.5164,1.9,13.37,47.84626,-54.09684
2018-03-13 17:00:00+00:00,222.4114,1.89,13.44,47.84626,-54.09684
2018-03-13 17:10:00+00:00,221.8531,1.8,13.44,47.84626,-54.09684
2018-03-13 17:20:00+00:00,223.9431,1.87,13.44,47.84626,-54.09684
2018-03-13 17:30:00+00:00,224.7014,1.9,13.44,47.84626,-54.09684
2018-03-13 17:40:00+00:00,224.3648,1.8,13.44,47.84626,-54.09684
2018-03-13 17:50:00+00:00,228.5781,1.8,13.37,47.84626,-54.09684
2018-03-13 18:00:00+00:00,237.0547,1.8,13.44,47.84626,-54.09684
2018-03-13 18:10:00+00:00,242.2498,1.8,13.53,47.84626,-54.09684
2018-03-13 18:20:00+00:00,243.5531,1.84,13.6,47.84626,-54.09684
2018-03-13 18:30:00+00:00,250.4631,1.88,14.0,47.84626,-54.09684
2018-03-13 18:40:00+00:00,257.4564,1.8,13.6,47.84626,-54.09684
2018-03-13 18:50:00+00:00,259.4414,1.8,13.76,47.84626,-54.09684
2018-03-13 19:00:00+00:00,262.7314,1.8,13.6,47.84626,-54.09684
2018-03-13 19:10:00+00:00,272.0564,1.8,13.44,47.84626,-54.09684
2018-03-13 19:20:00+00:00,274.5613,1.8,13.53,47.84626,-54.09684
2018-03-13 19:30:00+00:00,275.7097,1.9,13.53,47.84626,-54.09684
2018-03-13 19:40:00+00:00,283.3814,1.9,13.6,47.84626,-54.09684
2018-03-13 19:50:00+00:00,291.0231,1.8,13.53,47.84626,-54.09684
2018-03-13 20:00:00+00:00,288.3248,1.8,13.37,47.84626,-54.09684
2018-03-13 20:10:00+00:00,291.7264,1.8,13.21,47.84626,-54.09684
2018-03-13 20:20:00+00:00,297.463,1.8,13.29,47.84626,-54.09684
2018-03-13 20:30:00+00:00,299.0847,1.8,13.21,47.84626,-54.09684
2018-03-13 20:40:00+00:00,294.2497,1.8,13.21,47.84626,-54.09684
2018-03-13 20:50:00+00:00,295.0047,1.8,13.21,47.84626,-54.09684
2018-03-13 21:00:00+00:00,299.2313,1.8,13.05,47.84626,-54.09684
2018-03-13 21:10:00+00:00,302.0047,1.8,12.97,47.84626,-54.09684
2018-03-13 21:20:00+00:00,302.788,1.8,13.05,47.84626,-54.09684
2018-03-13 21:30:00+00:00,305.1396,1.76,13.05,47.84626,-54.09684
2018-03-13 21:40:00+00:00,307.108,1.76,13.05,47.84626,-54.09684
2018-03-13 21:50:00+00:00,305.598,1.76,13.05,47.84626,-54.09684
2018-03-13 22:00:00+00:00,302.443,1.78,12.97,47.84626,-54.09684
2018-03-13 22:10:00+00:00,305.0214,1.77,12.97,47.84626,-54.09684
2018-03-13 22:20:00+00:00,306.7947,1.79,12.97,47.84626,-54.09684
2018-03-13 22:30:00+00:00,298.828,1.8,12.97,47.84626,-54.09684
2018-03-13 22:40:00+00:00,295.6197,1.82,12.97,47.84626,-54.09684
2018-03-13 22:50:00+00:00,305.0197,1.8,12.97,47.84626,-54.09684
2018-03-13 23:00:00+00:00,305.813,1.8,12.97,47.84626,-54.09684
2018-03-13 23:10:00+00:00,294.0181,1.84,12.89,47.84626,-54.09684
2018-03-13 23:20:00+00:00,291.7013,1.88,12.97,47.84626,-54.09684
2018-03-13 23:30:00+00:00,296.6946,1.87,12.97,47.84626,-54.09684
2018-03-13 23:40:00+00:00,290.4081,1.89,12.97,47.84626,-54.09684
2018-03-13 23:50:00+00:00,278.0397,1.89,12.97,47.84626,-54.09684
